Regional Weather Roundup
Issued by NWS

Home | Current Version | Previous Version | Text Only | Print | Product List | Glossary Off
Versions: 1 2 3 4 5 6 7 8 9 10 11 12 13 14 15 16 17 18 19 20 21 22 23 24 25 26 27 28 29 30 31 32 33 34 35 36 37 38 39 40 41 42 43 44 45 46 47 48 49 50

000
ASUS45 KPSR 310510
RWRAZ

ARIZONA HOURLY REGIONAL WEATHER ROUNDUP
NATIONAL WEATHER SERVICE PHOENIX AZ
1000 PM MST THU JUL 30 2015

NOTE: FAIR INDICATES FEW OR NO CLOUDS BELOW 12,000 FEET WITH NO
SIGNIFICANT WEATHER AND/OR OBSTRUCTIONS TO VISIBILITY.

AZZ001>003-036-310600-
NORTHWEST ARIZONA

CITY           SKY/WX    TMP DP  RH WIND       PRES   REMARKS
BULLHEAD CITY  CLOUDY    88  66  48 CALM      29.96S
KINGMAN        LGT RAIN  78  59  51 S5        30.13F
$$

AZZ004>008-015-016-018-310600-
NORTH CENTRAL ARIZONA

CITY           SKY/WX    TMP DP  RH WIND       PRES   REMARKS
GRAND CANYON   CLOUDY    70  46  42 CALM      30.38S
WILLIAMS       CLOUDY    66  52  59 SE8       30.46R
PRESCOTT       PTCLDY    71  57  61 SW3       30.27R
FLAGSTAFF      PTCLDY    56  56 100 CALM      30.44R
PAYSON         PTCLDY    73  57  56 CALM      30.30R HAZE
PAGE           MOCLDY    84  51  31 S6        30.17R
$$

AZZ009>014-017-310600-
NORTHEAST ARIZONA

CITY           SKY/WX    TMP DP  RH WIND       PRES   REMARKS
WINSLOW        MOCLDY    74  59  59 S8        30.28R
SAINT JOHNS    PTCLDY    67  59  75 S7        30.32S
SHOW LOW       PTCLDY    63  55  77 NW6       30.40R
$$

AZZ023-310600-
GREATER PHOENIX AREA

CITY           SKY/WX    TMP DP  RH WIND       PRES   REMARKS
PHOENIX        MOCLDY   100  56  23 NW12      29.91R
LUKE AFB       PTCLDY    97  59  28 NW6       29.92R
DEER VALLEY    CLEAR     95  58  28 NW6       29.95R
SCOTTSDALE     CLEAR     96  58  27 NW3       29.96R
MESA-GATEWAY   PTCLDY    97  55  24 CALM      29.96R
$$

AZZ027-028-310600-
SOUTHWEST MARICOPA COUNTY AND PINAL COUNTY

CITY           SKY/WX    TMP DP  RH WIND       PRES   REMARKS
CASA GRANDE    MOCLDY    93  55  27 CALM      29.94S
GILA BEND      MOCLDY    95  60  31 W3        29.91R
$$

AZZ503-504-507>509-310600-
SOUTHEAST ARIZONA

CITY           SKY/WX    TMP DP  RH WIND       PRES   REMARKS
TUCSON         MOCLDY    90  61  37 CALM      30.07R
DAVIS-MONTHAN  CLEAR     89  64  43 CALM      30.06R
NOGALES        MOCLDY    77  63  61 SE5       30.18
SIERRA VISTA   CLOUDY    76  56  51 S8        30.25S
DOUGLAS          N/A    N/A N/A N/A MISG      30.20S
SAFFORD        PTCLDY    86  58  38 S3        30.10R
$$

AZZ020-021-025-026-031-310600-
SOUTHWEST ARIZONA

CITY           SKY/WX    TMP DP  RH WIND       PRES   REMARKS
YUMA           TSTM      96  65  35 NE10      29.91R
$$

CAZ031-033-041-043-047-048-061-310600-
SOUTHERN CALIFORNIA

CITY           SKY/WX    TMP DP  RH WIND       PRES   REMARKS
DOWNTOWN L.A.  CLEAR     70  63  78 VRB5      30.00R
L.A. AIRPORT   PTCLDY    70  66  87 W6        30.01R
SAN DIEGO      MOCLDY    72  64  78 SW3       30.04R
BURBANK        CLEAR     76  61  59 S6        30.01R
ONTARIO        PTCLDY    79  64  60 SW7       30.01R
RIVERSIDE      CLEAR     79  65  62 W6        30.01R
PALM SPRINGS   MOCLDY    92  64  39 W3        29.96R
EL CENTRO NAS  PTCLDY    91  64  40 NE5       29.89R
IMPERIAL       CLEAR     94  65  38 E3        29.87R
BLYTHE         PTCLDY    85  71  63 W12       29.92R
NEEDLES        CLOUDY    87  68  52 SW3       29.96S
$$

NVZ020-UTZ003-310600-
SOUTHERN NEVADA-UTAH

CITY           SKY/WX    TMP DP  RH WIND       PRES   REMARKS
LAS VEGAS      CLOUDY    92  54  27 S10G22    30.01R
SALT LAKE CITY PTCLDY    74  33  22 S6        30.21R
$$

NMZ009-TXZ055-310600-
NEW MEXICO-WEST TEXAS

CITY           SKY/WX    TMP DP  RH WIND       PRES   REMARKS
ALBUQUERQUE    MOCLDY    72  58  61 E3        30.35S
EL PASO        LGT RAIN  81  63  54 N6        30.19R
$$


........................KEY........................
SKY/WX - SKY CONDITION/WEATHER
TMP    - TEMPERATURE IN FAHRENHEIT
DP     - DEW POINT IN FAHRENHEIT
RH     - RELATIVE HUMIDITY IN PERCENT
WIND   - DIRECTION AND SPEED IN MILES PER HOUR (MPH)
VRB    - VARIABLE WIND DIRECTION
PRES   - MEAN SEA LEVEL PRESSURE IN INCHES OF MERCURY
         F - FALLING PRESSURE   R - RISING PRESSURE
         S - STEADY PRESSURE
VSB    - VISIBILITY IN MILES
HX     - HEAT INDEX IN FAHRENHEIT
WCI    - WIND CHILL INDEX IN FAHRENHEIT
TC     - TEMPERATURE IN CELSIUS WHICH IS ALSO KNOWN AS
         TEMPERATURE IN CENTIGRADE
AFB    - AIR FORCE BASE
         LUKE AFB IS LUKE AIR FORCE BASE
         DAVIS-MONTHAN IS DAVIS-MONTHAN AIR FORCE BASE
NAS    - NAVAL AIR STATION
         EL CENTRO NAS IS EL CENTRO NAVAL AIR STATION
N/A    - NOT AVAILABLE



USA.gov is the U.S. government's official web portal to all federal, state and local government web resources and services.